Content
SEND FEEDBACK

Daily
Averages
Monthly
Summary
United States of America

MARVINE, COLORADO


Home > North America > United States > Colorado
Elevation: 2290 meters     Latitude: 40 01N     Longitude: 107 33W

WEATHER
 
SELECT A DAY
Number of Records: 177,995;   Date Range: 2/27/97 - 11/21/14
 
SHARE

PRINT THIS DATA

[ ← Previous Day ]
WEATHER ALMANAC - 13 FEBRUARY, 2013
[ Next Day → ]
[ °F ]   °C
Weather ElementAverageHighLow
Temperature-5.9 °C0 °C (3:53 pm)-11.1 °C (9:53 pm)
Dewpoint-10.4 °C-8.3 °C (11:53 am)-13.3 °C (8:53 pm)
Humidity71.7 %84 % (9:53 pm)52 % (3:53 pm)
Barometer1026.1 hPa1029.1 hPa (7:53 am)1023 hPa (2:53 pm)
Wind Speed1.8 km/h7.4 km/h (1:53 am)
Weather ElementAverage
Visibility16.1 km
Wind DirectionNNE (18.7 °)

Weather ElementTotal
Precipitation---
Heating Degree Days23.9 (Base 18.3)
Averaged from 23 records on 13 February, 2013
WEATHER CONDITIONS BREAKOUT
WIND DIRECTION BREAKOUT
WEATHER BY HOUR - 13 FEBRUARY, 2013
[ °F ]   °C
Local TimeTemperatureDewpointHumidityBarometerVisibilityWind DirectionWind SpeedGust SpeedPrecipitationEventsConditions
1:53 AM-7.2 °C-11.7 °C71 %1027.4 hPa16.1 kmNE (50°)7.4 km/hOvercast
2:53 AM-7.2 °C-11.1 °C74 %1026.8 hPa16.1 kmCalmOvercast
3:53 AM-7.2 °C-10.6 °C77 %1026.4 hPa16.1 kmCalmOvercast
4:53 AM-7.2 °C-10.6 °C77 %1026.4 hPa16.1 kmCalmOvercast
5:53 AM-7.2 °C-10 °C81 %1027.8 hPa16.1 kmENE (60°)5.6 km/hOvercast
6:53 AM-6.7 °C-10 °C78 %1027.8 hPa16.1 kmCalmOvercast
7:53 AM-6.7 °C-9.4 °C81 %1029.1 hPa16.1 kmCalmOvercast
8:53 AM-6.1 °C-9.4 °C78 %1028.8 hPa16.1 kmCalmOvercast
9:53 AM-4.4 °C-8.9 °C71 %1027.8 hPa16.1 kmNNE (30°)5.6 km/hOvercast
10:53 AM-2.8 °C-8.9 °C63 %1026.8 hPa16.1 kmENE (60°)7.4 km/hClear
11:53 AM-2.2 °C-8.3 °C63 %1026.1 hPa16.1 kmSSE (150°)7.4 km/hPartly Cloudy
12:53 PM-1.1 °C-8.9 °C56 %1024.4 hPa16.1 kmCalmMostly Cloudy
1:53 PM-1.1 °C-8.9 °C56 %1023.4 hPa16.1 kmCalmPartly Cloudy
2:53 PM-1.1 °C-8.3 °C59 %1023 hPa16.1 kmCalmClear
3:53 PM0 °C-8.9 °C52 %1023 hPa16.1 kmCalmClear
4:53 PM-1.7 °C-8.9 °C58 %1023.4 hPa16.1 kmCalmClear
5:53 PM-6.7 °C-11.1 °C71 %1024.7 hPa16.1 kmCalmClear
6:53 PM-8.3 °C-11.7 °C77 %1025.4 hPa16.1 kmCalmClear
7:53 PM-10 °C-12.8 °C80 %1026.1 hPa16.1 kmEast (80°)5.6 km/hClear
8:53 PM-10.6 °C-13.3 °C81 %1026.1 hPa16.1 kmCalmClear
9:53 PM-11.1 °C-13.3 °C84 %1026.1 hPa16.1 kmCalmPartly Cloudy
10:53 PM-9.4 °C-12.2 °C80 %1025.4 hPa16.1 kmCalmClear
11:53 PM-9.4 °C-12.2 °C80 %1025.1 hPa16.1 kmCalmClear
Hourly data recorded from KEEO, located 0 kilometers away from Marvine, Colorado







STORIES FROM OUR PARTNERS